BEESAT

Satellite information

Favourite Embed

Satellite Type and Status

PAYLOADIN ORBIT

Key statistics

Satellite BEESAT at a glance.

Uptime

5706

Days in orbit

Revolutions

≈ 14.6

Per day

Orbit

SSO

Sun Synchronous Orbit

Inclination

98.4

Latest

Satellite identification and parameters

Extended collection of information and parameters for BEESAT.

Object identification

Identified? True

Debris? False

Object name: BEESAT

International designator: 2009-051C

Object number (NORAD): 35933

Object ID (CCSDS): 35933

Country: GERMANY (GER)

Current information (Y/N): Y

RCS size: SMALL

Orbital parameters

Period: 98.584 minutes

Inclination: 98.427 deg

SMA: 7069.113 km

Apoapsis: 695.592 km

Periapsis: 686.364 km

RAAN: 23.9622 deg

Eccentricy: 0.0006527

Argument of periapsis: 54.0247 deg

Mean anomaly: 306.1557 deg

Mean motion: 14.60680971 rev/day

Mean motion (dot): 0.00001233 rev/day2

B* drag term: 0.00026317 1/REarth

Two-line elements (TLE)

Creation date: May 8, 2025, 3:01 a.m.

Reference frame: TEME

Reference center: EARTH

Epoch: May 7, 2025, 10:19 p.m. UTC

TLE line 0: 0 BEESAT

TLE line 1: 1 35933U 09051C 25127.93046372 .00001233 00000-0 26317-3 0 9990

TLE line 2: 2 35933 98.4270 23.9622 0006527 54.0247 306.1557 14.60680971830001

Live tracking on map

Real-time ground track for satellite BEESAT.

In-orbit conjunctions

There are no conjunctions computed for BEESAT, at the moment. Check back to stay up to date, as we update our databases every day.

Go to all conjunctions

Associated space launch

Oceansat-2 is an earth observation and oceanography satellite operated by ISRO.

BEESAT was lifted into orbit during the mission ‘PSLV | Oceansat-2’, on board a PSLV space rocket.

The launch took place on Sept. 23, 2009, 6:21 a.m. from Satish Dhawan Space Centre First Launch Pad.

For more information about the launch, click the button.

Launch to space PSLV | Oceansat-2
PSLV | Oceansat-2

Agency: N/A

Status: Launch Successful

Launch date: Sept. 23, 2009, 6:21 a.m. UTC

Rocket: PSLV

Launch pad: Satish Dhawan Space Centre First Launch Pad

Location: Satish Dhawan Space Centre, India

...

Latest news about this satellite

There are no fresh news available about this satellite. Check back as we update our databases every day.


Newsletter sign-up

Weekly statistics, charts and insights to help you stay on top of the space industry.